Year,Month,Day,Hour,Minute,Value (Times are PST for windspeed in km/hr)
2007,08,24,00,00,0.00
2007,08,24,00,01,0.00
2007,08,24,00,02,0.00
2007,08,24,00,03,4.10
2007,08,24,00,04,5.70
2007,08,24,00,05,6.10
2007,08,24,00,06,6.80
2007,08,24,00,07,4.20
2007,08,24,00,08,1.60
2007,08,24,00,09,1.60
2007,08,24,00,10,3.20
2007,08,24,00,11,6.00
2007,08,24,00,12,3.50
2007,08,24,00,13,2.70
2007,08,24,00,14,4.10
2007,08,24,00,15,3.40
2007,08,24,00,16,4.50
2007,08,24,00,17,4.80
2007,08,24,00,18,2.50
2007,08,24,00,19,3.50
2007,08,24,00,20,1.80
2007,08,24,00,21,1.30
2007,08,24,00,22,4.50
2007,08,24,00,23,4.50
2007,08,24,00,24,3.40
2007,08,24,00,25,4.40
2007,08,24,00,26,4.60
2007,08,24,00,27,2.90
2007,08,24,00,28,4.00
2007,08,24,00,29,3.60
2007,08,24,00,30,1.70
2007,08,24,00,31,3.00
2007,08,24,00,32,1.70
2007,08,24,00,33,0.30
2007,08,24,00,34,0.00
2007,08,24,00,35,0.00
2007,08,24,00,36,0.00
2007,08,24,00,37,0.00
2007,08,24,00,38,0.00
2007,08,24,00,39,0.80
2007,08,24,00,40,0.00
2007,08,24,00,41,0.00
2007,08,24,00,42,0.10
2007,08,24,00,43,0.00
2007,08,24,00,44,0.00
2007,08,24,00,45,0.10
2007,08,24,00,46,0.70
2007,08,24,00,47,0.40
2007,08,24,00,48,0.20
2007,08,24,00,49,0.00
2007,08,24,00,50,0.40
2007,08,24,00,51,2.70
2007,08,24,00,52,0.90
2007,08,24,00,53,1.20
2007,08,24,00,54,2.00
2007,08,24,00,55,0.80
2007,08,24,00,56,2.10
2007,08,24,00,57,1.50
2007,08,24,00,58,4.10
2007,08,24,00,59,3.10
2007,08,24,01,00,3.50
2007,08,24,01,01,3.80
2007,08,24,01,02,2.10
2007,08,24,01,03,2.40
2007,08,24,01,04,0.10
2007,08,24,01,05,3.90
2007,08,24,01,06,1.10
2007,08,24,01,07,1.50
2007,08,24,01,08,0.80
2007,08,24,01,09,2.40
2007,08,24,01,10,1.50
2007,08,24,01,11,1.60
2007,08,24,01,12,3.40
2007,08,24,01,13,2.70
2007,08,24,01,14,1.40
2007,08,24,01,15,0.30
2007,08,24,01,16,0.30
2007,08,24,01,17,0.40
2007,08,24,01,18,0.50
2007,08,24,01,19,0.80
2007,08,24,01,20,0.20
2007,08,24,01,21,0.20
2007,08,24,01,22,0.00
2007,08,24,01,23,0.00
2007,08,24,01,24,1.00
2007,08,24,01,25,0.60
2007,08,24,01,26,1.30
2007,08,24,01,27,0.00
2007,08,24,01,28,0.00
2007,08,24,01,29,0.00
2007,08,24,01,30,0.00
2007,08,24,01,31,0.00
2007,08,24,01,32,0.00
2007,08,24,01,33,0.00
2007,08,24,01,34,0.00
2007,08,24,01,35,0.00
2007,08,24,01,36,0.00
2007,08,24,01,37,0.00
2007,08,24,01,38,0.00
2007,08,24,01,39,0.00
2007,08,24,01,40,0.00
2007,08,24,01,41,0.00
2007,08,24,01,42,0.00
2007,08,24,01,43,0.00
2007,08,24,01,44,0.00
2007,08,24,01,45,0.00
2007,08,24,01,46,0.00
2007,08,24,01,47,0.00
2007,08,24,01,48,0.00
2007,08,24,01,49,0.00
2007,08,24,01,50,0.00
2007,08,24,01,51,0.00
2007,08,24,01,52,0.00
2007,08,24,01,53,0.00
2007,08,24,01,54,0.00
2007,08,24,01,55,0.00
2007,08,24,01,56,0.00
2007,08,24,01,57,0.00
2007,08,24,01,58,0.00
2007,08,24,01,59,0.00
2007,08,24,02,00,0.00
2007,08,24,02,01,0.00
2007,08,24,02,02,0.00
2007,08,24,02,03,0.00
2007,08,24,02,04,0.00
2007,08,24,02,05,0.00
2007,08,24,02,06,0.00
2007,08,24,02,07,0.10
2007,08,24,02,08,0.30
2007,08,24,02,09,0.40
2007,08,24,02,10,0.00
2007,08,24,02,11,0.00
2007,08,24,02,12,0.00
2007,08,24,02,13,0.00
2007,08,24,02,14,0.40
2007,08,24,02,15,0.00
2007,08,24,02,16,0.50
2007,08,24,02,17,0.50
2007,08,24,02,18,0.00
2007,08,24,02,19,0.30
2007,08,24,02,20,0.50
2007,08,24,02,21,1.30
2007,08,24,02,22,1.20
2007,08,24,02,23,1.80
2007,08,24,02,24,1.30
2007,08,24,02,25,0.70
2007,08,24,02,26,0.50
2007,08,24,02,27,0.40
2007,08,24,02,28,0.00
2007,08,24,02,29,0.20
2007,08,24,02,30,1.30
2007,08,24,02,31,1.60
2007,08,24,02,32,1.60
2007,08,24,02,33,1.60
2007,08,24,02,34,1.60
2007,08,24,02,35,1.60
2007,08,24,02,36,1.60
2007,08,24,02,37,0.00
2007,08,24,02,38,0.00
2007,08,24,02,39,0.00
2007,08,24,02,40,0.00
2007,08,24,02,41,0.00
2007,08,24,02,42,0.00
2007,08,24,02,43,0.10
2007,08,24,02,44,0.00
2007,08,24,02,45,0.10
2007,08,24,02,46,0.00
2007,08,24,02,47,0.00
2007,08,24,02,48,0.00
2007,08,24,02,49,0.00
2007,08,24,02,50,0.00
2007,08,24,02,51,0.00
2007,08,24,02,52,0.00
2007,08,24,02,53,0.00
2007,08,24,02,54,0.00
2007,08,24,02,55,0.00
2007,08,24,02,56,0.00
2007,08,24,02,57,0.00
2007,08,24,02,58,0.00
2007,08,24,02,59,0.00
2007,08,24,03,00,0.00
2007,08,24,03,01,0.00
2007,08,24,03,02,0.00
2007,08,24,03,03,0.00
2007,08,24,03,04,0.00
2007,08,24,03,05,0.00
2007,08,24,03,06,0.00
2007,08,24,03,07,0.00
2007,08,24,03,08,0.00
2007,08,24,03,09,0.00
2007,08,24,03,10,0.00
2007,08,24,03,11,0.00
2007,08,24,03,12,0.00
2007,08,24,03,13,0.10
2007,08,24,03,14,0.00
2007,08,24,03,15,0.00
2007,08,24,03,16,0.00
2007,08,24,03,17,0.10
2007,08,24,03,18,0.30
2007,08,24,03,19,0.20
2007,08,24,03,20,0.00
2007,08,24,03,21,0.50
2007,08,24,03,22,1.00
2007,08,24,03,23,0.40
2007,08,24,03,24,0.00
2007,08,24,03,25,0.00
2007,08,24,03,26,0.10
2007,08,24,03,27,0.30
2007,08,24,03,28,1.10
2007,08,24,03,29,0.90
2007,08,24,03,30,0.40
2007,08,24,03,31,1.00
2007,08,24,03,32,1.60
2007,08,24,03,33,1.60
2007,08,24,03,34,0.60
2007,08,24,03,35,0.90
2007,08,24,03,36,1.50
2007,08,24,03,37,0.10
2007,08,24,03,38,0.40
2007,08,24,03,39,0.20
2007,08,24,03,40,0.40
2007,08,24,03,41,1.00
2007,08,24,03,42,0.80
2007,08,24,03,43,0.10
2007,08,24,03,44,0.20
2007,08,24,03,45,0.10
2007,08,24,03,46,0.00
2007,08,24,03,47,1.50
2007,08,24,03,48,0.10
2007,08,24,03,49,0.50
2007,08,24,03,50,0.00
2007,08,24,03,51,0.00
2007,08,24,03,52,0.10
2007,08,24,03,53,0.10
2007,08,24,03,54,0.00
2007,08,24,03,55,0.00
2007,08,24,03,56,0.00
2007,08,24,03,57,0.00
2007,08,24,03,58,0.10
2007,08,24,03,59,0.00
2007,08,24,04,00,0.00
2007,08,24,04,01,0.20
2007,08,24,04,02,0.00
2007,08,24,04,03,0.00
2007,08,24,04,04,0.00
2007,08,24,04,05,0.10
2007,08,24,04,06,0.00
2007,08,24,04,07,0.30
2007,08,24,04,08,0.00
2007,08,24,04,09,0.00
2007,08,24,04,10,0.00
2007,08,24,04,11,0.00
2007,08,24,04,12,0.00
2007,08,24,04,13,0.00
2007,08,24,04,14,0.00
2007,08,24,04,15,0.00
2007,08,24,04,16,0.00
2007,08,24,04,17,0.00
2007,08,24,04,18,0.40
2007,08,24,04,19,0.10
2007,08,24,04,20,1.20
2007,08,24,04,21,0.30
2007,08,24,04,22,0.70
2007,08,24,04,23,0.00
2007,08,24,04,24,0.10
2007,08,24,04,25,0.10
2007,08,24,04,26,0.00
2007,08,24,04,27,0.00
2007,08,24,04,28,0.00
2007,08,24,04,29,0.00
2007,08,24,04,30,0.00
2007,08,24,04,31,0.00
2007,08,24,04,32,0.00
2007,08,24,04,33,0.00
2007,08,24,04,34,0.00
2007,08,24,04,35,0.00
2007,08,24,04,36,0.00
2007,08,24,04,37,0.00
2007,08,24,04,38,0.00
2007,08,24,04,39,0.00
2007,08,24,04,40,0.00
2007,08,24,04,41,0.00
2007,08,24,04,42,0.00
2007,08,24,04,43,0.00
2007,08,24,04,44,0.00
2007,08,24,04,45,0.00
2007,08,24,04,46,0.00
2007,08,24,04,47,0.00
2007,08,24,04,48,0.00
2007,08,24,04,49,0.00
2007,08,24,04,50,0.00
2007,08,24,04,51,0.00
2007,08,24,04,52,0.00
2007,08,24,04,53,0.00
2007,08,24,04,54,0.00
2007,08,24,04,55,0.00
2007,08,24,04,56,0.00
2007,08,24,04,57,0.00
2007,08,24,04,58,0.00
2007,08,24,04,59,0.00
2007,08,24,05,00,0.00
2007,08,24,05,01,0.00
2007,08,24,05,02,0.00
2007,08,24,05,03,0.00
2007,08,24,05,04,0.00
2007,08,24,05,05,0.00
2007,08,24,05,06,0.00
2007,08,24,05,07,0.00
2007,08,24,05,08,0.00
2007,08,24,05,09,0.00
2007,08,24,05,10,0.00
2007,08,24,05,11,0.00
2007,08,24,05,12,0.00
2007,08,24,05,13,0.00
2007,08,24,05,14,0.00
2007,08,24,05,15,0.00
2007,08,24,05,16,0.00
2007,08,24,05,17,0.00
2007,08,24,05,18,0.00
2007,08,24,05,19,0.00
2007,08,24,05,20,0.00
2007,08,24,05,21,0.00
2007,08,24,05,22,0.00
2007,08,24,05,23,0.00
2007,08,24,05,24,0.00
2007,08,24,05,25,0.00
2007,08,24,05,26,0.00
2007,08,24,05,27,0.00
2007,08,24,05,28,0.00
2007,08,24,05,29,0.00
2007,08,24,05,30,0.00
2007,08,24,05,31,0.00
2007,08,24,05,32,0.00
2007,08,24,05,33,0.00
2007,08,24,05,34,0.00
2007,08,24,05,35,0.00
2007,08,24,05,36,0.00
2007,08,24,05,37,0.00
2007,08,24,05,38,0.00
2007,08,24,05,39,0.00
2007,08,24,05,40,0.00
2007,08,24,05,41,0.00
2007,08,24,05,42,0.00
2007,08,24,05,43,0.00
2007,08,24,05,44,0.00
2007,08,24,05,45,0.00
2007,08,24,05,46,0.00
2007,08,24,05,47,0.00
2007,08,24,05,48,0.00
2007,08,24,05,49,0.00
2007,08,24,05,50,0.00
2007,08,24,05,51,0.00
2007,08,24,05,52,0.00
2007,08,24,05,53,0.00
2007,08,24,05,54,0.20
2007,08,24,05,55,0.00
2007,08,24,05,56,0.00
2007,08,24,05,57,0.00
2007,08,24,05,58,0.00
2007,08,24,05,59,0.00
2007,08,24,06,00,0.00
2007,08,24,06,01,0.00
2007,08,24,06,02,0.00
2007,08,24,06,03,0.00
2007,08,24,06,04,0.00
2007,08,24,06,05,0.00
2007,08,24,06,06,0.00
2007,08,24,06,07,0.00
2007,08,24,06,08,0.00
2007,08,24,06,09,0.00
2007,08,24,06,10,0.00
2007,08,24,06,11,0.00
2007,08,24,06,12,0.00
2007,08,24,06,13,0.00
2007,08,24,06,14,0.00
2007,08,24,06,15,0.00
2007,08,24,06,16,0.00
2007,08,24,06,17,0.00
2007,08,24,06,18,0.00
2007,08,24,06,19,0.00
2007,08,24,06,20,0.00
2007,08,24,06,21,0.00
2007,08,24,06,22,0.00
2007,08,24,06,23,0.00
2007,08,24,06,24,0.00
2007,08,24,06,25,0.00
2007,08,24,06,26,0.00
2007,08,24,06,27,0.00
2007,08,24,06,28,0.00
2007,08,24,06,29,0.00
2007,08,24,06,30,0.00
2007,08,24,06,31,0.00
2007,08,24,06,32,0.00
2007,08,24,06,33,2.50
2007,08,24,06,34,2.50
2007,08,24,06,35,0.60
2007,08,24,06,36,0.00
2007,08,24,06,37,0.00
2007,08,24,06,38,0.00
2007,08,24,06,39,0.00
2007,08,24,06,40,0.00
2007,08,24,06,41,0.00
2007,08,24,06,42,0.00
2007,08,24,06,43,0.00
2007,08,24,06,44,0.00
2007,08,24,06,45,0.00
2007,08,24,06,46,0.00
2007,08,24,06,47,0.00
2007,08,24,06,48,0.00
2007,08,24,06,49,0.00
2007,08,24,06,50,0.00
2007,08,24,06,51,0.00
2007,08,24,06,52,0.00
2007,08,24,06,53,0.00
2007,08,24,06,54,0.00
2007,08,24,06,55,0.00
2007,08,24,06,56,0.00
2007,08,24,06,57,0.00
2007,08,24,06,58,0.00
2007,08,24,06,59,0.00
2007,08,24,07,00,0.00
2007,08,24,07,01,0.00
2007,08,24,07,02,0.00
2007,08,24,07,03,0.10
2007,08,24,07,04,0.00
2007,08,24,07,05,0.00
2007,08,24,07,06,0.00
2007,08,24,07,07,0.00
2007,08,24,07,08,0.00
2007,08,24,07,09,0.00
2007,08,24,07,10,0.00
2007,08,24,07,11,0.00
2007,08,24,07,12,0.00
2007,08,24,07,13,0.00
2007,08,24,07,14,0.00
2007,08,24,07,15,0.00
2007,08,24,07,16,0.00
2007,08,24,07,17,0.00
2007,08,24,07,18,0.00
2007,08,24,07,19,0.00
2007,08,24,07,20,0.00
2007,08,24,07,21,0.00
2007,08,24,07,22,0.00
2007,08,24,07,23,0.00
2007,08,24,07,24,0.00
2007,08,24,07,25,0.00
2007,08,24,07,26,0.00
2007,08,24,07,27,0.00
2007,08,24,07,28,0.00
2007,08,24,07,29,0.00
2007,08,24,07,30,0.00
2007,08,24,07,31,0.00
2007,08,24,07,32,0.00
2007,08,24,07,33,0.00
2007,08,24,07,34,0.00
2007,08,24,07,35,0.00
2007,08,24,07,36,0.00
2007,08,24,07,37,0.00
2007,08,24,07,38,0.00
2007,08,24,07,39,0.00
2007,08,24,07,40,0.00
2007,08,24,07,41,0.00
2007,08,24,07,42,0.00
2007,08,24,07,43,0.00
2007,08,24,07,44,0.00
2007,08,24,07,45,0.00
2007,08,24,07,46,0.00
2007,08,24,07,47,1.00
2007,08,24,07,48,0.00
2007,08,24,07,49,0.00
2007,08,24,07,50,0.00
2007,08,24,07,51,0.00
2007,08,24,07,52,0.00
2007,08,24,07,53,0.00
2007,08,24,07,54,0.00
2007,08,24,07,55,0.00
2007,08,24,07,56,0.00
2007,08,24,07,57,0.00
2007,08,24,07,58,0.00
2007,08,24,07,59,0.00
2007,08,24,08,00,0.10
2007,08,24,08,01,0.60
2007,08,24,08,02,0.10
2007,08,24,08,03,0.20
2007,08,24,08,04,0.00
2007,08,24,08,05,1.10
2007,08,24,08,06,2.40
2007,08,24,08,07,1.90
2007,08,24,08,08,2.10
2007,08,24,08,09,1.20
2007,08,24,08,10,2.50
2007,08,24,08,11,3.10
2007,08,24,08,12,3.40
2007,08,24,08,13,2.50
2007,08,24,08,14,2.20
2007,08,24,08,15,1.40
2007,08,24,08,16,2.60
2007,08,24,08,17,3.50
2007,08,24,08,18,1.70
2007,08,24,08,19,1.40
2007,08,24,08,20,2.60
2007,08,24,08,21,2.60
2007,08,24,08,22,3.50
2007,08,24,08,23,3.70
2007,08,24,08,24,4.00
2007,08,24,08,25,3.10
2007,08,24,08,26,1.20
2007,08,24,08,27,0.70
2007,08,24,08,28,1.50
2007,08,24,08,29,1.80
2007,08,24,08,30,4.20
2007,08,24,08,31,4.10
2007,08,24,08,32,3.10
2007,08,24,08,33,0.70
2007,08,24,08,34,1.10
2007,08,24,08,35,2.60
2007,08,24,08,36,5.60
2007,08,24,08,37,5.00
2007,08,24,08,38,5.10
2007,08,24,08,39,5.10
2007,08,24,08,40,3.80
2007,08,24,08,41,1.00
2007,08,24,08,42,4.10
2007,08,24,08,43,4.30
2007,08,24,08,44,3.70
2007,08,24,08,45,4.50
2007,08,24,08,46,3.50
2007,08,24,08,47,3.00
2007,08,24,08,48,3.70
2007,08,24,08,49,3.10
2007,08,24,08,50,4.00
2007,08,24,08,51,3.10
2007,08,24,08,52,2.70
2007,08,24,08,53,1.40
2007,08,24,08,54,2.60
2007,08,24,08,55,4.10
2007,08,24,08,56,2.50
2007,08,24,08,57,1.70
2007,08,24,08,58,1.50
2007,08,24,08,59,2.40
2007,08,24,09,00,4.30
2007,08,24,09,01,2.20
2007,08,24,09,02,2.70
2007,08,24,09,03,3.70
2007,08,24,09,04,3.50
2007,08,24,09,05,1.10
2007,08,24,09,06,3.00
2007,08,24,09,07,3.00
2007,08,24,09,08,2.30
2007,08,24,09,09,2.90
2007,08,24,09,10,4.20
2007,08,24,09,11,1.40
2007,08,24,09,12,0.20
2007,08,24,09,13,0.80
2007,08,24,09,14,3.10
2007,08,24,09,15,2.50
2007,08,24,09,16,2.00
2007,08,24,09,17,1.00
2007,08,24,09,18,1.90
2007,08,24,09,19,3.70
2007,08,24,09,20,1.70
2007,08,24,09,21,2.60
2007,08,24,09,22,1.50
2007,08,24,09,23,3.90
2007,08,24,09,24,5.00
2007,08,24,09,25,5.30
2007,08,24,09,26,5.40
2007,08,24,09,27,4.70
2007,08,24,09,28,5.70
2007,08,24,09,29,6.00
2007,08,24,09,30,6.20
2007,08,24,09,31,5.60
2007,08,24,09,32,6.40
2007,08,24,09,33,6.00
2007,08,24,09,34,5.10
2007,08,24,09,35,6.70
2007,08,24,09,36,8.10
2007,08,24,09,37,7.80
2007,08,24,09,38,7.60
2007,08,24,09,39,7.90
2007,08,24,09,40,7.90
2007,08,24,09,41,5.10
2007,08,24,09,42,3.90
2007,08,24,09,43,4.60
2007,08,24,09,44,5.50
2007,08,24,09,45,4.80
2007,08,24,09,46,4.40
2007,08,24,09,47,6.50
2007,08,24,09,48,3.80
2007,08,24,09,49,6.90
2007,08,24,09,50,4.40
2007,08,24,09,51,4.60
2007,08,24,09,52,4.40
2007,08,24,09,53,1.50
2007,08,24,09,54,3.60
2007,08,24,09,55,6.00
2007,08,24,09,56,4.50
2007,08,24,09,57,3.00
2007,08,24,09,58,4.20
2007,08,24,09,59,7.00
2007,08,24,10,00,7.20
2007,08,24,10,01,5.20
2007,08,24,10,02,1.40
2007,08,24,10,03,3.80
2007,08,24,10,04,2.70
2007,08,24,10,05,5.60
2007,08,24,10,06,4.80
2007,08,24,10,07,3.90
2007,08,24,10,08,6.20
2007,08,24,10,09,8.20
2007,08,24,10,10,8.10
2007,08,24,10,11,8.10
2007,08,24,10,12,8.10
2007,08,24,10,13,8.10
2007,08,24,10,14,8.10
2007,08,24,10,15,8.10
2007,08,24,10,16,8.10
2007,08,24,10,17,8.10
2007,08,24,10,18,6.80
2007,08,24,10,19,4.30
2007,08,24,10,20,3.40
2007,08,24,10,21,4.90
2007,08,24,10,22,5.40
2007,08,24,10,23,3.70
2007,08,24,10,24,2.20
2007,08,24,10,25,2.30
2007,08,24,10,26,6.40
2007,08,24,10,27,6.80
2007,08,24,10,28,7.30
2007,08,24,10,29,8.40
2007,08,24,10,30,7.30
2007,08,24,10,31,7.30
2007,08,24,10,32,4.00
2007,08,24,10,33,5.40
2007,08,24,10,34,5.70
2007,08,24,10,35,8.70
2007,08,24,10,36,6.90
2007,08,24,10,37,5.00
2007,08,24,10,38,5.10
2007,08,24,10,39,4.80
2007,08,24,10,40,6.70
2007,08,24,10,41,6.00
2007,08,24,10,42,7.60
2007,08,24,10,43,7.40
2007,08,24,10,44,8.90
2007,08,24,10,45,7.00
2007,08,24,10,46,9.60
2007,08,24,10,47,8.20
2007,08,24,10,48,6.30
2007,08,24,10,49,6.00
2007,08,24,10,50,7.20
2007,08,24,10,51,7.50
2007,08,24,10,52,6.90
2007,08,24,10,53,6.40
2007,08,24,10,54,6.40
2007,08,24,10,55,6.40
2007,08,24,10,56,7.10
2007,08,24,10,57,5.70
2007,08,24,10,58,3.50
2007,08,24,10,59,7.40
2007,08,24,11,00,7.10
2007,08,24,11,01,6.90
2007,08,24,11,02,5.90
2007,08,24,11,03,4.20
2007,08,24,11,04,3.90
2007,08,24,11,05,2.80
2007,08,24,11,06,5.70
2007,08,24,11,07,5.60
2007,08,24,11,08,5.30
2007,08,24,11,09,7.10
2007,08,24,11,10,4.80
2007,08,24,11,11,8.20
2007,08,24,11,12,6.70
2007,08,24,11,13,8.30
2007,08,24,11,14,9.10
2007,08,24,11,15,8.10
2007,08,24,11,16,8.10
2007,08,24,11,17,8.10
2007,08,24,11,18,8.10
2007,08,24,11,19,8.50
2007,08,24,11,20,8.20
2007,08,24,11,21,5.00
2007,08,24,11,22,7.70
2007,08,24,11,23,7.00
2007,08,24,11,24,8.20
2007,08,24,11,25,10.00
2007,08,24,11,26,7.00
2007,08,24,11,27,4.80
2007,08,24,11,28,4.80
2007,08,24,11,29,5.80
2007,08,24,11,30,9.10
2007,08,24,11,31,7.80
2007,08,24,11,32,6.40
2007,08,24,11,33,6.40
2007,08,24,11,34,6.40
2007,08,24,11,35,8.10
2007,08,24,11,36,9.00
2007,08,24,11,37,7.90
2007,08,24,11,38,6.40
2007,08,24,11,39,6.10
2007,08,24,11,40,4.60
2007,08,24,11,41,7.50
2007,08,24,11,42,8.30
2007,08,24,11,43,7.90
2007,08,24,11,44,6.20
2007,08,24,11,45,4.40
2007,08,24,11,46,4.30
2007,08,24,11,47,6.50
2007,08,24,11,48,9.80
2007,08,24,11,49,10.10
2007,08,24,11,50,11.70
2007,08,24,11,51,9.30
2007,08,24,11,52,4.20
2007,08,24,11,53,6.10
2007,08,24,11,54,4.30
2007,08,24,11,55,8.30
2007,08,24,11,56,8.00
2007,08,24,11,57,9.80
2007,08,24,11,58,9.50
2007,08,24,11,59,7.40
2007,08,24,12,00,7.30
2007,08,24,12,01,8.80
2007,08,24,12,02,8.40
2007,08,24,12,03,7.70
2007,08,24,12,04,5.00
2007,08,24,12,05,6.70
2007,08,24,12,06,11.00
2007,08,24,12,07,10.90
2007,08,24,12,08,11.00
2007,08,24,12,09,10.80
2007,08,24,12,10,9.30
2007,08,24,12,11,10.80
2007,08,24,12,12,9.30
2007,08,24,12,13,9.70
2007,08,24,12,14,9.90
2007,08,24,12,15,9.40
2007,08,24,12,16,7.40
2007,08,24,12,17,9.50
2007,08,24,12,18,9.50
2007,08,24,12,19,9.70
2007,08,24,12,20,8.80
2007,08,24,12,21,8.10
2007,08,24,12,22,9.10
2007,08,24,12,23,10.00
2007,08,24,12,24,6.40
2007,08,24,12,25,6.00
2007,08,24,12,26,5.20
2007,08,24,12,27,6.40
2007,08,24,12,28,6.20
2007,08,24,12,29,5.80
2007,08,24,12,30,2.90
2007,08,24,12,31,6.20
2007,08,24,12,32,6.80
2007,08,24,12,33,10.20
2007,08,24,12,34,8.70
2007,08,24,12,35,7.90
2007,08,24,12,36,9.30
2007,08,24,12,37,13.00
2007,08,24,12,38,9.90
2007,08,24,12,39,9.40
2007,08,24,12,40,5.80
2007,08,24,12,41,6.10
2007,08,24,12,42,6.30
2007,08,24,12,43,7.70
2007,08,24,12,44,5.60
2007,08,24,12,45,7.90
2007,08,24,12,46,15.60
2007,08,24,12,47,15.10
2007,08,24,12,48,11.10
2007,08,24,12,49,9.40
2007,08,24,12,50,7.90
2007,08,24,12,51,12.20
2007,08,24,12,52,10.10
2007,08,24,12,53,5.10
2007,08,24,12,54,7.50
2007,08,24,12,55,11.20
2007,08,24,12,56,14.10
2007,08,24,12,57,12.30
2007,08,24,12,58,9.40
2007,08,24,12,59,8.20
2007,08,24,13,00,12.50
2007,08,24,13,01,14.00
2007,08,24,13,02,16.10
2007,08,24,13,03,15.50
2007,08,24,13,04,15.50
2007,08,24,13,05,13.30
2007,08,24,13,06,11.50
2007,08,24,13,07,10.50
2007,08,24,13,08,6.00
2007,08,24,13,09,6.00
2007,08,24,13,10,8.90
2007,08,24,13,11,6.40
2007,08,24,13,12,8.50
2007,08,24,13,13,8.10
2007,08,24,13,14,9.60
2007,08,24,13,15,11.10
2007,08,24,13,16,9.50
2007,08,24,13,17,10.00
2007,08,24,13,18,8.90
2007,08,24,13,19,5.80
2007,08,24,13,20,5.10
2007,08,24,13,21,8.70
2007,08,24,13,22,7.30
2007,08,24,13,23,5.80
2007,08,24,13,24,6.90
2007,08,24,13,25,8.00
2007,08,24,13,26,5.90
2007,08,24,13,27,7.50
2007,08,24,13,28,5.90
2007,08,24,13,29,7.10
2007,08,24,13,30,13.40
2007,08,24,13,31,10.50
2007,08,24,13,32,13.40
2007,08,24,13,33,9.70
2007,08,24,13,34,12.70
2007,08,24,13,35,13.30
2007,08,24,13,36,7.30
2007,08,24,13,37,11.40
2007,08,24,13,38,9.40
2007,08,24,13,39,12.30
2007,08,24,13,40,9.60
2007,08,24,13,41,9.60
2007,08,24,13,42,7.60
2007,08,24,13,43,4.70
2007,08,24,13,44,6.10
2007,08,24,13,45,6.40
2007,08,24,13,46,7.30
2007,08,24,13,47,7.40
2007,08,24,13,48,12.60
2007,08,24,13,49,14.80
2007,08,24,13,50,11.90
2007,08,24,13,51,6.70
2007,08,24,13,52,7.20
2007,08,24,13,53,6.20
2007,08,24,13,54,4.70
2007,08,24,13,55,8.70
2007,08,24,13,56,4.80
2007,08,24,13,57,8.00
2007,08,24,13,58,11.30
2007,08,24,13,59,14.90
2007,08,24,14,00,17.50
2007,08,24,14,01,16.30
2007,08,24,14,02,10.80
2007,08,24,14,03,8.40
2007,08,24,14,04,7.40
2007,08,24,14,05,5.50
2007,08,24,14,06,12.20
2007,08,24,14,07,15.30
2007,08,24,14,08,15.10
2007,08,24,14,09,17.20
2007,08,24,14,10,11.60
2007,08,24,14,11,12.70
2007,08,24,14,12,12.30
2007,08,24,14,13,11.50
2007,08,24,14,14,10.90
2007,08,24,14,15,11.30
2007,08,24,14,16,14.50
2007,08,24,14,17,14.50
2007,08,24,14,18,13.90
2007,08,24,14,19,10.40
2007,08,24,14,20,6.60
2007,08,24,14,21,6.80
2007,08,24,14,22,9.70
2007,08,24,14,23,9.40
2007,08,24,14,24,13.40
2007,08,24,14,25,12.70
2007,08,24,14,26,16.20
2007,08,24,14,27,16.50
2007,08,24,14,28,15.90
2007,08,24,14,29,15.40
2007,08,24,14,30,14.00
2007,08,24,14,31,13.60
2007,08,24,14,32,12.80
2007,08,24,14,33,17.90
2007,08,24,14,34,16.60
2007,08,24,14,35,14.60
2007,08,24,14,36,15.20
2007,08,24,14,37,15.00
2007,08,24,14,38,14.00
2007,08,24,14,39,17.60
2007,08,24,14,40,14.60
2007,08,24,14,41,17.30
2007,08,24,14,42,11.10
2007,08,24,14,43,12.20
2007,08,24,14,44,10.40
2007,08,24,14,45,9.00
2007,08,24,14,46,9.60
2007,08,24,14,47,7.30
2007,08,24,14,48,11.50
2007,08,24,14,49,18.70
2007,08,24,14,50,16.20
2007,08,24,14,51,22.50
2007,08,24,14,52,20.20
2007,08,24,14,53,20.50
2007,08,24,14,54,14.80
2007,08,24,14,55,22.00
2007,08,24,14,56,16.90
2007,08,24,14,57,17.40
2007,08,24,14,58,19.80
2007,08,24,14,59,21.90
2007,08,24,15,00,20.90
2007,08,24,15,01,13.60
2007,08,24,15,02,17.00
2007,08,24,15,03,17.20
2007,08,24,15,04,13.00
2007,08,24,15,05,15.90
2007,08,24,15,06,16.60
2007,08,24,15,07,19.30
2007,08,24,15,08,17.20
2007,08,24,15,09,18.60
2007,08,24,15,10,18.10
2007,08,24,15,11,16.00
2007,08,24,15,12,14.20
2007,08,24,15,13,21.00
2007,08,24,15,14,17.90
2007,08,24,15,15,18.50
2007,08,24,15,16,19.20
2007,08,24,15,17,12.70
2007,08,24,15,18,15.60
2007,08,24,15,19,16.70
2007,08,24,15,20,16.30
2007,08,24,15,21,10.00
2007,08,24,15,22,16.00
2007,08,24,15,23,19.00
2007,08,24,15,24,18.20
2007,08,24,15,25,17.10
2007,08,24,15,26,15.00
2007,08,24,15,27,14.50
2007,08,24,15,28,15.20
2007,08,24,15,29,12.50
2007,08,24,15,30,20.40
2007,08,24,15,31,16.50
2007,08,24,15,32,20.10
2007,08,24,15,33,21.70
2007,08,24,15,34,23.80
2007,08,24,15,35,21.60
2007,08,24,15,36,22.70
2007,08,24,15,37,20.60
2007,08,24,15,38,15.00
2007,08,24,15,39,13.60
2007,08,24,15,40,15.90
2007,08,24,15,41,12.70
2007,08,24,15,42,14.40
2007,08,24,15,43,19.40
2007,08,24,15,44,13.60
2007,08,24,15,45,13.00
2007,08,24,15,46,14.90
2007,08,24,15,47,13.00
2007,08,24,15,48,11.70
2007,08,24,15,49,8.40
2007,08,24,15,50,8.30
2007,08,24,15,51,9.60
2007,08,24,15,52,11.60
2007,08,24,15,53,13.90
2007,08,24,15,54,11.40
2007,08,24,15,55,11.90
2007,08,24,15,56,12.70
2007,08,24,15,57,14.60
2007,08,24,15,58,9.10
2007,08,24,15,59,10.90
2007,08,24,16,00,9.20
2007,08,24,16,01,18.60
2007,08,24,16,02,12.30
2007,08,24,16,03,13.40
2007,08,24,16,04,13.30
2007,08,24,16,05,10.80
2007,08,24,16,06,11.50
2007,08,24,16,07,13.40
2007,08,24,16,08,19.80
2007,08,24,16,09,16.50
2007,08,24,16,10,11.00
2007,08,24,16,11,17.60
2007,08,24,16,12,11.40
2007,08,24,16,13,14.40
2007,08,24,16,14,11.80
2007,08,24,16,15,13.10
2007,08,24,16,16,14.40
2007,08,24,16,17,12.70
2007,08,24,16,18,11.70
2007,08,24,16,19,11.80
2007,08,24,16,20,16.00
2007,08,24,16,21,16.50
2007,08,24,16,22,14.60
2007,08,24,16,23,14.70
2007,08,24,16,24,13.30
2007,08,24,16,25,16.90
2007,08,24,16,26,12.50
2007,08,24,16,27,17.40
2007,08,24,16,28,21.30
2007,08,24,16,29,16.30
2007,08,24,16,30,14.40
2007,08,24,16,31,18.70
2007,08,24,16,32,13.90
2007,08,24,16,33,11.10
2007,08,24,16,34,11.10
2007,08,24,16,35,13.70
2007,08,24,16,36,17.10
2007,08,24,16,37,17.50
2007,08,24,16,38,15.30
2007,08,24,16,39,15.20
2007,08,24,16,40,16.60
2007,08,24,16,41,17.90
2007,08,24,16,42,9.40
2007,08,24,16,43,19.20
2007,08,24,16,44,16.60
2007,08,24,16,45,13.50
2007,08,24,16,46,10.10
2007,08,24,16,47,12.40
2007,08,24,16,48,11.20
2007,08,24,16,49,10.10
2007,08,24,16,50,16.20
2007,08,24,16,51,17.10
2007,08,24,16,52,14.90
2007,08,24,16,53,14.20
2007,08,24,16,54,11.70
2007,08,24,16,55,14.20
2007,08,24,16,56,19.00
2007,08,24,16,57,13.20
2007,08,24,16,58,12.80
2007,08,24,16,59,16.60
2007,08,24,17,00,15.20
2007,08,24,17,01,13.00
2007,08,24,17,02,16.90
2007,08,24,17,03,14.10
2007,08,24,17,04,21.70
2007,08,24,17,05,14.70
2007,08,24,17,06,17.70
2007,08,24,17,07,14.60
2007,08,24,17,08,13.50
2007,08,24,17,09,18.50
2007,08,24,17,10,20.10
2007,08,24,17,11,15.40
2007,08,24,17,12,17.40
2007,08,24,17,13,20.40
2007,08,24,17,14,18.20
2007,08,24,17,15,14.40
2007,08,24,17,16,19.70
2007,08,24,17,17,12.20
2007,08,24,17,18,14.10
2007,08,24,17,19,11.20
2007,08,24,17,20,13.40
2007,08,24,17,21,18.10
2007,08,24,17,22,13.90
2007,08,24,17,23,18.00
2007,08,24,17,24,14.00
2007,08,24,17,25,15.90
2007,08,24,17,26,12.30
2007,08,24,17,27,14.20
2007,08,24,17,28,14.70
2007,08,24,17,29,13.80
2007,08,24,17,30,22.60
2007,08,24,17,31,18.70
2007,08,24,17,32,13.30
2007,08,24,17,33,17.30
2007,08,24,17,34,18.40
2007,08,24,17,35,20.40
2007,08,24,17,36,21.90
2007,08,24,17,37,25.50
2007,08,24,17,38,19.50
2007,08,24,17,39,19.30
2007,08,24,17,40,19.40
2007,08,24,17,41,19.50
2007,08,24,17,42,23.30
2007,08,24,17,43,21.90
2007,08,24,17,44,15.40
2007,08,24,17,45,18.40
2007,08,24,17,46,21.10
2007,08,24,17,47,18.10
2007,08,24,17,48,21.50
2007,08,24,17,49,19.20
2007,08,24,17,50,15.50
2007,08,24,17,51,19.70
2007,08,24,17,52,18.20
2007,08,24,17,53,13.80
2007,08,24,17,54,22.40